TimeCST,TemperatureF,Dew PointF,Humidity,Sea Level PressureIn,VisibilityMPH,Wind Direction,Wind SpeedMPH,Gust SpeedMPH,PrecipitationIn,Events,Conditions,WindDirDegrees,DateUTC
12:51 AM,50.0,39.9,68,30.30,10.0,NNE,5.8,-,N/A,,Mostly Cloudy,20,2013-12-13 06:51:00
1:51 AM,50.0,39.9,68,30.27,10.0,ENE,4.6,-,N/A,,Mostly Cloudy,70,2013-12-13 07:51:00
2:14 AM,50.0,39.2,66,30.25,10.0,NNE,3.5,-,N/A,,Mostly Cloudy,30,2013-12-13 08:14:00
2:31 AM,50.0,37.4,62,30.24,10.0,NNE,3.5,-,N/A,,Mostly Cloudy,30,2013-12-13 08:31:00
2:51 AM,50.0,39.0,66,30.24,10.0,North,4.6,-,N/A,,Mostly Cloudy,350,2013-12-13 08:51:00
3:51 AM,50.0,37.9,63,30.22,10.0,North,6.9,-,N/A,,Mostly Cloudy,350,2013-12-13 09:51:00
4:38 AM,50.0,37.4,62,30.21,10.0,North,8.1,-,N/A,,Overcast,360,2013-12-13 10:38:00
4:51 AM,50.0,37.9,63,30.19,10.0,North,9.2,-,N/A,,Overcast,10,2013-12-13 10:51:00
5:51 AM,50.0,39.0,66,30.18,10.0,North,9.2,-,N/A,,Overcast,10,2013-12-13 11:51:00
6:51 AM,52.0,39.0,61,30.18,10.0,NNE,6.9,-,N/A,,Overcast,20,2013-12-13 12:51:00
7:51 AM,51.1,39.9,66,30.18,10.0,North,10.4,-,N/A,,Overcast,360,2013-12-13 13:51:00
8:51 AM,53.1,41.0,64,30.14,10.0,NE,6.9,-,N/A,,Overcast,50,2013-12-13 14:51:00
9:51 AM,55.9,43.0,62,30.12,10.0,ENE,8.1,-,N/A,,Overcast,70,2013-12-13 15:51:00
10:51 AM,59.0,45.0,60,30.09,10.0,Variable,5.8,-,N/A,,Overcast,0,2013-12-13 16:51:00
11:51 AM,61.0,46.9,60,30.06,10.0,East,5.8,-,N/A,,Overcast,80,2013-12-13 17:51:00
12:41 PM,62.6,50.0,63,30.00,10.0,ESE,6.9,-,N/A,,Overcast,120,2013-12-13 18:41:00
12:51 PM,63.0,50.0,63,29.98,10.0,SE,5.8,-,N/A,,Overcast,130,2013-12-13 18:51:00
1:51 PM,68.0,52.0,56,29.95,10.0,Calm,Calm,-,N/A,,Overcast,0,2013-12-13 19:51:00
1:58 PM,66.2,51.8,60,29.95,10.0,Calm,Calm,-,N/A,,Overcast,0,2013-12-13 19:58:00
2:51 PM,70.0,57.0,63,29.92,10.0,South,8.1,-,N/A,,Overcast,190,2013-12-13 20:51:00
3:51 PM,71.1,59.0,66,29.90,10.0,South,9.2,-,N/A,,Overcast,170,2013-12-13 21:51:00
4:14 PM,71.6,59.0,64,29.89,10.0,South,10.4,-,N/A,,Overcast,190,2013-12-13 22:14:00
4:51 PM,70.0,59.0,68,29.88,10.0,South,11.5,-,N/A,,Overcast,180,2013-12-13 22:51:00
5:51 PM,66.0,57.9,75,29.89,10.0,SSE,6.9,-,N/A,,Overcast,150,2013-12-13 23:51:00
6:51 PM,64.9,57.9,78,29.90,10.0,South,4.6,-,N/A,,Overcast,170,2013-12-14 00:51:00
7:51 PM,64.9,57.9,78,29.94,10.0,NNW,6.9,-,N/A,,Overcast,330,2013-12-14 01:51:00
8:51 PM,63.0,52.0,67,29.97,10.0,NNW,16.1,-,N/A,,Overcast,340,2013-12-14 02:51:00
9:51 PM,61.0,51.1,70,29.95,10.0,North,6.9,-,N/A,,Overcast,360,2013-12-14 03:51:00
10:51 PM,60.1,50.0,69,29.94,10.0,North,9.2,-,N/A,,Overcast,10,2013-12-14 04:51:00
11:51 PM,60.1,50.0,69,29.94,10.0,North,8.1,-,N/A,,Overcast,10,2013-12-14 05:51:00